Year,Month,Day,Hour,Minute,Value (Times are PST for temperature in C)
2015,10,16,00,00,10.90
2015,10,16,00,01,10.90
2015,10,16,00,02,10.90
2015,10,16,00,03,10.90
2015,10,16,00,04,10.90
2015,10,16,00,05,10.90
2015,10,16,00,06,10.90
2015,10,16,00,07,10.90
2015,10,16,00,08,10.90
2015,10,16,00,09,10.90
2015,10,16,00,10,10.90
2015,10,16,00,11,10.90
2015,10,16,00,12,10.90
2015,10,16,00,13,10.90
2015,10,16,00,14,10.90
2015,10,16,00,15,10.90
2015,10,16,00,16,10.90
2015,10,16,00,17,10.90
2015,10,16,00,18,10.90
2015,10,16,00,19,10.90
2015,10,16,00,20,10.90
2015,10,16,00,21,10.90
2015,10,16,00,22,10.90
2015,10,16,00,23,10.90
2015,10,16,00,24,10.90
2015,10,16,00,25,10.90
2015,10,16,00,26,10.90
2015,10,16,00,27,10.90
2015,10,16,00,28,10.90
2015,10,16,00,29,10.90
2015,10,16,00,30,10.90
2015,10,16,00,31,10.90
2015,10,16,00,32,10.90
2015,10,16,00,33,10.90
2015,10,16,00,34,10.90
2015,10,16,00,35,10.90
2015,10,16,00,36,10.90
2015,10,16,00,37,10.90
2015,10,16,00,38,10.90
2015,10,16,00,39,10.90
2015,10,16,00,40,10.90
2015,10,16,00,41,10.90
2015,10,16,00,42,10.90
2015,10,16,00,43,10.90
2015,10,16,00,44,10.90
2015,10,16,00,45,10.80
2015,10,16,00,46,10.80
2015,10,16,00,47,10.80
2015,10,16,00,48,10.80
2015,10,16,00,49,10.70
2015,10,16,00,50,10.70
2015,10,16,00,51,10.70
2015,10,16,00,52,10.70
2015,10,16,00,53,10.60
2015,10,16,00,54,10.60
2015,10,16,00,55,10.60
2015,10,16,00,56,10.60
2015,10,16,00,57,10.60
2015,10,16,00,58,10.50
2015,10,16,00,59,10.50
2015,10,16,01,00,10.50
2015,10,16,01,01,10.40
2015,10,16,01,02,10.40
2015,10,16,01,03,10.40
2015,10,16,01,04,10.40
2015,10,16,01,05,10.40
2015,10,16,01,06,10.40
2015,10,16,01,07,10.40
2015,10,16,01,08,10.40
2015,10,16,01,09,10.40
2015,10,16,01,10,10.40
2015,10,16,01,11,10.40
2015,10,16,01,12,10.40
2015,10,16,01,13,10.40
2015,10,16,01,14,10.40
2015,10,16,01,15,10.40
2015,10,16,01,16,10.40
2015,10,16,01,17,10.40
2015,10,16,01,18,10.40
2015,10,16,01,19,10.40
2015,10,16,01,20,10.40
2015,10,16,01,21,10.40
2015,10,16,01,22,10.40
2015,10,16,01,23,10.30
2015,10,16,01,24,10.30
2015,10,16,01,25,10.30
2015,10,16,01,26,10.30
2015,10,16,01,27,10.30
2015,10,16,01,28,10.30
2015,10,16,01,29,10.30
2015,10,16,01,30,10.30
2015,10,16,01,31,10.30
2015,10,16,01,32,10.30
2015,10,16,01,33,10.30
2015,10,16,01,34,10.30
2015,10,16,01,35,10.30
2015,10,16,01,36,10.30
2015,10,16,01,37,10.20
2015,10,16,01,38,10.20
2015,10,16,01,39,10.20
2015,10,16,01,40,10.20
2015,10,16,01,41,10.20
2015,10,16,01,42,10.20
2015,10,16,01,43,10.20
2015,10,16,01,44,10.20
2015,10,16,01,45,10.10
2015,10,16,01,46,10.10
2015,10,16,01,47,10.10
2015,10,16,01,48,10.10
2015,10,16,01,49,10.10
2015,10,16,01,50,10.10
2015,10,16,01,51,10.10
2015,10,16,01,52,10.10
2015,10,16,01,53,10.10
2015,10,16,01,54,10.10
2015,10,16,01,55,10.10
2015,10,16,01,56,10.10
2015,10,16,01,57,10.10
2015,10,16,01,58,10.10
2015,10,16,01,59,10.10
2015,10,16,02,00,10.10
2015,10,16,02,01,10.10
2015,10,16,02,02,10.10
2015,10,16,02,03,10.10
2015,10,16,02,04,10.10
2015,10,16,02,05,10.10
2015,10,16,02,06,10.10
2015,10,16,02,07,10.10
2015,10,16,02,08,10.10
2015,10,16,02,09,10.10
2015,10,16,02,10,10.10
2015,10,16,02,11,10.10
2015,10,16,02,12,10.10
2015,10,16,02,13,10.00
2015,10,16,02,14,10.00
2015,10,16,02,15,10.00
2015,10,16,02,16,10.00
2015,10,16,02,17,10.00
2015,10,16,02,18,9.90
2015,10,16,02,19,9.90
2015,10,16,02,20,9.90
2015,10,16,02,21,9.90
2015,10,16,02,22,9.90
2015,10,16,02,23,9.90
2015,10,16,02,24,9.80
2015,10,16,02,25,9.80
2015,10,16,02,26,9.80
2015,10,16,02,27,9.80
2015,10,16,02,28,9.80
2015,10,16,02,29,9.80
2015,10,16,02,30,9.80
2015,10,16,02,31,9.80
2015,10,16,02,32,9.80
2015,10,16,02,33,9.90
2015,10,16,02,34,9.80
2015,10,16,02,35,9.90
2015,10,16,02,36,9.80
2015,10,16,02,37,9.80
2015,10,16,02,38,9.80
2015,10,16,02,39,9.80
2015,10,16,02,40,9.80
2015,10,16,02,41,9.80
2015,10,16,02,42,9.80
2015,10,16,02,43,9.80
2015,10,16,02,44,9.80
2015,10,16,02,45,9.80
2015,10,16,02,46,9.80
2015,10,16,02,47,9.80
2015,10,16,02,48,9.70
2015,10,16,02,49,9.70
2015,10,16,02,50,9.70
2015,10,16,02,51,9.70
2015,10,16,02,52,9.70
2015,10,16,02,53,9.70
2015,10,16,02,54,9.70
2015,10,16,02,55,9.70
2015,10,16,02,56,9.70
2015,10,16,02,57,9.70
2015,10,16,02,58,9.70
2015,10,16,02,59,9.70
2015,10,16,03,00,9.70
2015,10,16,03,01,9.70
2015,10,16,03,02,9.70
2015,10,16,03,03,9.70
2015,10,16,03,04,9.70
2015,10,16,03,05,9.70
2015,10,16,03,06,9.70
2015,10,16,03,07,9.70
2015,10,16,03,08,9.60
2015,10,16,03,09,9.60
2015,10,16,03,10,9.60
2015,10,16,03,11,9.60
2015,10,16,03,12,9.60
2015,10,16,03,13,9.50
2015,10,16,03,14,9.50
2015,10,16,03,15,9.50
2015,10,16,03,16,9.40
2015,10,16,03,17,9.40
2015,10,16,03,18,9.40
2015,10,16,03,19,9.40
2015,10,16,03,20,9.40
2015,10,16,03,21,9.40
2015,10,16,03,22,9.40
2015,10,16,03,23,9.40
2015,10,16,03,24,9.40
2015,10,16,03,25,9.40
2015,10,16,03,26,9.40
2015,10,16,03,27,9.40
2015,10,16,03,28,9.40
2015,10,16,03,29,9.40
2015,10,16,03,30,9.30
2015,10,16,03,31,9.30
2015,10,16,03,32,9.30
2015,10,16,03,33,9.30
2015,10,16,03,34,9.30
2015,10,16,03,35,9.30
2015,10,16,03,36,9.30
2015,10,16,03,37,9.20
2015,10,16,03,38,9.20
2015,10,16,03,39,9.20
2015,10,16,03,40,9.20
2015,10,16,03,41,9.20
2015,10,16,03,42,9.20
2015,10,16,03,43,9.30
2015,10,16,03,44,9.30
2015,10,16,03,45,9.30
2015,10,16,03,46,9.30
2015,10,16,03,47,9.30
2015,10,16,03,48,9.30
2015,10,16,03,49,9.30
2015,10,16,03,50,9.30
2015,10,16,03,51,9.30
2015,10,16,03,52,9.40
2015,10,16,03,53,9.40
2015,10,16,03,54,9.40
2015,10,16,03,55,9.30
2015,10,16,03,56,9.30
2015,10,16,03,57,9.30
2015,10,16,03,58,9.30
2015,10,16,03,59,9.30
2015,10,16,04,00,9.30
2015,10,16,04,01,9.30
2015,10,16,04,02,9.30
2015,10,16,04,03,9.30
2015,10,16,04,04,9.30
2015,10,16,04,05,9.30
2015,10,16,04,06,9.30
2015,10,16,04,07,9.30
2015,10,16,04,08,9.30
2015,10,16,04,09,9.30
2015,10,16,04,10,9.30
2015,10,16,04,11,9.30
2015,10,16,04,12,9.20
2015,10,16,04,13,9.20
2015,10,16,04,14,9.20
2015,10,16,04,15,9.20
2015,10,16,04,16,9.20
2015,10,16,04,17,9.20
2015,10,16,04,18,9.20
2015,10,16,04,19,9.10
2015,10,16,04,20,9.10
2015,10,16,04,21,9.10
2015,10,16,04,22,9.10
2015,10,16,04,23,9.10
2015,10,16,04,24,9.10
2015,10,16,04,25,9.10
2015,10,16,04,26,9.10
2015,10,16,04,27,9.10
2015,10,16,04,28,9.10
2015,10,16,04,29,9.10
2015,10,16,04,30,9.10
2015,10,16,04,31,9.10
2015,10,16,04,32,9.10
2015,10,16,04,33,9.10
2015,10,16,04,34,9.10
2015,10,16,04,35,9.00
2015,10,16,04,36,9.00
2015,10,16,04,37,9.00
2015,10,16,04,38,9.00
2015,10,16,04,39,9.00
2015,10,16,04,40,9.10
2015,10,16,04,41,9.10
2015,10,16,04,42,9.10
2015,10,16,04,43,9.10
2015,10,16,04,44,9.10
2015,10,16,04,45,9.10
2015,10,16,04,46,9.10
2015,10,16,04,47,9.10
2015,10,16,04,48,9.10
2015,10,16,04,49,9.10
2015,10,16,04,50,9.10
2015,10,16,04,51,9.10
2015,10,16,04,52,9.10
2015,10,16,04,53,9.10
2015,10,16,04,54,9.10
2015,10,16,04,55,9.10
2015,10,16,04,56,9.10
2015,10,16,04,57,9.10
2015,10,16,04,58,9.10
2015,10,16,04,59,9.10
2015,10,16,05,00,9.00
2015,10,16,05,01,9.00
2015,10,16,05,02,9.00
2015,10,16,05,03,9.00
2015,10,16,05,04,9.00
2015,10,16,05,05,9.00
2015,10,16,05,06,8.90
2015,10,16,05,07,8.90
2015,10,16,05,08,8.90
2015,10,16,05,09,8.90
2015,10,16,05,10,8.90
2015,10,16,05,11,8.90
2015,10,16,05,12,8.90
2015,10,16,05,13,8.80
2015,10,16,05,14,8.80
2015,10,16,05,15,8.80
2015,10,16,05,16,8.80
2015,10,16,05,17,8.80
2015,10,16,05,18,8.80
2015,10,16,05,19,8.80
2015,10,16,05,20,8.80
2015,10,16,05,21,8.80
2015,10,16,05,22,8.80
2015,10,16,05,23,8.80
2015,10,16,05,24,8.80
2015,10,16,05,25,8.80
2015,10,16,05,26,8.80
2015,10,16,05,27,8.80
2015,10,16,05,28,8.80
2015,10,16,05,29,8.80
2015,10,16,05,30,8.80
2015,10,16,05,31,8.80
2015,10,16,05,32,8.80
2015,10,16,05,33,8.80
2015,10,16,05,34,8.80
2015,10,16,05,35,8.80
2015,10,16,05,36,8.80
2015,10,16,05,37,8.80
2015,10,16,05,38,8.80
2015,10,16,05,39,8.80
2015,10,16,05,40,8.80
2015,10,16,05,41,8.80
2015,10,16,05,42,8.80
2015,10,16,05,43,8.80
2015,10,16,05,44,8.80
2015,10,16,05,45,8.80
2015,10,16,05,46,8.80
2015,10,16,05,47,8.80
2015,10,16,05,48,8.70
2015,10,16,05,49,8.70
2015,10,16,05,50,8.70
2015,10,16,05,51,8.70
2015,10,16,05,52,8.70
2015,10,16,05,53,8.80
2015,10,16,05,54,8.80
2015,10,16,05,55,8.80
2015,10,16,05,56,8.80
2015,10,16,05,57,8.80
2015,10,16,05,58,8.80
2015,10,16,05,59,8.80
2015,10,16,06,00,8.80
2015,10,16,06,01,8.80
2015,10,16,06,02,8.80
2015,10,16,06,03,8.80
2015,10,16,06,04,8.80
2015,10,16,06,05,8.90
2015,10,16,06,06,8.90
2015,10,16,06,07,8.90
2015,10,16,06,08,8.90
2015,10,16,06,09,8.90
2015,10,16,06,10,8.90
2015,10,16,06,11,8.90
2015,10,16,06,12,8.90
2015,10,16,06,13,8.90
2015,10,16,06,14,8.90
2015,10,16,06,15,8.90
2015,10,16,06,16,8.90
2015,10,16,06,17,8.90
2015,10,16,06,18,8.90
2015,10,16,06,19,8.90
2015,10,16,06,20,8.90
2015,10,16,06,21,8.80
2015,10,16,06,22,8.80
2015,10,16,06,23,8.80
2015,10,16,06,24,8.80
2015,10,16,06,25,8.80
2015,10,16,06,26,8.80
2015,10,16,06,27,8.80
2015,10,16,06,28,8.80
2015,10,16,06,29,8.80
2015,10,16,06,30,8.80
2015,10,16,06,31,8.80
2015,10,16,06,32,8.80
2015,10,16,06,33,8.80
2015,10,16,06,34,8.80
2015,10,16,06,35,8.80
2015,10,16,06,36,8.80
2015,10,16,06,37,8.80
2015,10,16,06,38,8.80
2015,10,16,06,39,8.80
2015,10,16,06,40,8.80
2015,10,16,06,41,8.80
2015,10,16,06,42,8.80
2015,10,16,06,43,8.80
2015,10,16,06,44,8.80
2015,10,16,06,45,8.80
2015,10,16,06,46,8.80
2015,10,16,06,47,8.80
2015,10,16,06,48,8.80
2015,10,16,06,49,8.70
2015,10,16,06,50,8.70
2015,10,16,06,51,8.70
2015,10,16,06,52,8.70
2015,10,16,06,53,8.70
2015,10,16,06,54,8.70
2015,10,16,06,55,8.70
2015,10,16,06,56,8.60
2015,10,16,06,57,8.60
2015,10,16,06,58,8.60
2015,10,16,06,59,8.70
2015,10,16,07,00,8.70
2015,10,16,07,01,8.70
2015,10,16,07,02,8.70
2015,10,16,07,03,8.70
2015,10,16,07,04,8.70
2015,10,16,07,05,8.70
2015,10,16,07,06,8.70
2015,10,16,07,07,8.70
2015,10,16,07,08,8.70
2015,10,16,07,09,8.70
2015,10,16,07,10,8.70
2015,10,16,07,11,8.70
2015,10,16,07,12,8.80
2015,10,16,07,13,8.80
2015,10,16,07,14,8.80
2015,10,16,07,15,8.80
2015,10,16,07,16,8.80
2015,10,16,07,17,8.80
2015,10,16,07,18,8.80
2015,10,16,07,19,8.90
2015,10,16,07,20,8.90
2015,10,16,07,21,8.90
2015,10,16,07,22,8.90
2015,10,16,07,23,8.90
2015,10,16,07,24,8.90
2015,10,16,07,25,8.90
2015,10,16,07,26,8.90
2015,10,16,07,27,8.90
2015,10,16,07,28,8.90
2015,10,16,07,29,8.90
2015,10,16,07,30,8.90
2015,10,16,07,31,8.90
2015,10,16,07,32,8.90
2015,10,16,07,33,8.90
2015,10,16,07,34,8.90
2015,10,16,07,35,8.90
2015,10,16,07,36,8.90
2015,10,16,07,37,8.90
2015,10,16,07,38,8.90
2015,10,16,07,39,8.90
2015,10,16,07,40,8.90
2015,10,16,07,41,8.90
2015,10,16,07,42,8.90
2015,10,16,07,43,8.90
2015,10,16,07,44,8.90
2015,10,16,07,45,8.90
2015,10,16,07,46,8.90
2015,10,16,07,47,8.80
2015,10,16,07,48,8.80
2015,10,16,07,49,8.80
2015,10,16,07,50,8.80
2015,10,16,07,51,8.80
2015,10,16,07,52,8.90
2015,10,16,07,53,8.90
2015,10,16,07,54,8.90
2015,10,16,07,55,8.90
2015,10,16,07,56,8.90
2015,10,16,07,57,8.90
2015,10,16,07,58,8.90
2015,10,16,07,59,8.90
2015,10,16,08,00,8.90
2015,10,16,08,01,8.90
2015,10,16,08,02,8.90
2015,10,16,08,03,8.90
2015,10,16,08,04,8.90
2015,10,16,08,05,8.90
2015,10,16,08,06,9.00
2015,10,16,08,07,9.00
2015,10,16,08,08,9.00
2015,10,16,08,09,9.00
2015,10,16,08,10,9.00
2015,10,16,08,11,9.00
2015,10,16,08,12,9.00
2015,10,16,08,13,9.00
2015,10,16,08,14,9.10
2015,10,16,08,15,9.10
2015,10,16,08,16,9.10
2015,10,16,08,17,9.10
2015,10,16,08,18,9.10
2015,10,16,08,19,9.20
2015,10,16,08,20,9.20
2015,10,16,08,21,9.20
2015,10,16,08,22,9.20
2015,10,16,08,23,9.20
2015,10,16,08,24,9.20
2015,10,16,08,25,9.20
2015,10,16,08,26,9.20
2015,10,16,08,27,9.30
2015,10,16,08,28,9.30
2015,10,16,08,29,9.30
2015,10,16,08,30,9.30
2015,10,16,08,31,9.30
2015,10,16,08,32,9.40
2015,10,16,08,33,9.40
2015,10,16,08,34,9.40
2015,10,16,08,35,9.40
2015,10,16,08,36,9.40
2015,10,16,08,37,9.40
2015,10,16,08,38,9.40
2015,10,16,08,39,9.40
2015,10,16,08,40,9.50
2015,10,16,08,41,9.50
2015,10,16,08,42,9.60
2015,10,16,08,43,9.60
2015,10,16,08,44,9.60
2015,10,16,08,45,9.70
2015,10,16,08,46,9.70
2015,10,16,08,47,9.80
2015,10,16,08,48,9.80
2015,10,16,08,49,9.80
2015,10,16,08,50,9.90
2015,10,16,08,51,9.90
2015,10,16,08,52,9.90
2015,10,16,08,53,9.90
2015,10,16,08,54,10.00
2015,10,16,08,55,10.00
2015,10,16,08,56,10.00
2015,10,16,08,57,10.00
2015,10,16,08,58,10.10
2015,10,16,08,59,10.10
2015,10,16,09,00,10.10
2015,10,16,09,01,10.10
2015,10,16,09,02,10.20
2015,10,16,09,03,10.20
2015,10,16,09,04,10.20
2015,10,16,09,05,10.30
2015,10,16,09,06,10.30
2015,10,16,09,07,10.30
2015,10,16,09,08,10.40
2015,10,16,09,09,10.40
2015,10,16,09,10,10.40
2015,10,16,09,11,10.40
2015,10,16,09,12,10.50
2015,10,16,09,13,10.50
2015,10,16,09,14,10.50
2015,10,16,09,15,10.60
2015,10,16,09,16,10.60
2015,10,16,09,17,10.60
2015,10,16,09,18,10.60
2015,10,16,09,19,10.70
2015,10,16,09,20,10.70
2015,10,16,09,21,10.70
2015,10,16,09,22,10.70
2015,10,16,09,23,10.80
2015,10,16,09,24,10.80
2015,10,16,09,25,10.80
2015,10,16,09,26,10.80
2015,10,16,09,27,10.90
2015,10,16,09,28,10.90
2015,10,16,09,29,11.00
2015,10,16,09,30,11.10
2015,10,16,09,31,11.10
2015,10,16,09,32,11.20
2015,10,16,09,33,11.20
2015,10,16,09,34,11.30
2015,10,16,09,35,11.30
2015,10,16,09,36,11.30
2015,10,16,09,37,11.30
2015,10,16,09,38,11.30
2015,10,16,09,39,11.40
2015,10,16,09,40,11.40
2015,10,16,09,41,11.40
2015,10,16,09,42,11.40
2015,10,16,09,43,11.40
2015,10,16,09,44,11.50
2015,10,16,09,45,11.50
2015,10,16,09,46,11.50
2015,10,16,09,47,11.60
2015,10,16,09,48,11.60
2015,10,16,09,49,11.60
2015,10,16,09,50,11.60
2015,10,16,09,51,11.60
2015,10,16,09,52,11.60
2015,10,16,09,53,11.60
2015,10,16,09,54,11.60
2015,10,16,09,55,11.60
2015,10,16,09,56,11.60
2015,10,16,09,57,11.70
2015,10,16,09,58,11.70
2015,10,16,09,59,11.70
2015,10,16,10,00,11.80
2015,10,16,10,01,11.80
2015,10,16,10,02,11.80
2015,10,16,10,03,11.90
2015,10,16,10,04,11.90
2015,10,16,10,05,12.00
2015,10,16,10,06,12.10
2015,10,16,10,07,12.10
2015,10,16,10,08,12.10
2015,10,16,10,09,12.20
2015,10,16,10,10,12.20
2015,10,16,10,11,12.30
2015,10,16,10,12,12.30
2015,10,16,10,13,12.40
2015,10,16,10,14,12.40
2015,10,16,10,15,12.40
2015,10,16,10,16,12.40
2015,10,16,10,17,12.40
2015,10,16,10,18,12.40
2015,10,16,10,19,12.40
2015,10,16,10,20,12.40
2015,10,16,10,21,12.40
2015,10,16,10,22,12.50
2015,10,16,10,23,12.50
2015,10,16,10,24,12.60
2015,10,16,10,25,12.60
2015,10,16,10,26,12.60
2015,10,16,10,27,12.70
2015,10,16,10,28,12.70
2015,10,16,10,29,12.80
2015,10,16,10,30,12.80
2015,10,16,10,31,12.80
2015,10,16,10,32,12.90
2015,10,16,10,33,12.90
2015,10,16,10,34,12.90
2015,10,16,10,35,12.90
2015,10,16,10,36,13.00
2015,10,16,10,37,13.00
2015,10,16,10,38,13.00
2015,10,16,10,39,13.00
2015,10,16,10,40,13.00
2015,10,16,10,41,13.10
2015,10,16,10,42,13.10
2015,10,16,10,43,13.10
2015,10,16,10,44,13.20
2015,10,16,10,45,13.20
2015,10,16,10,46,13.30
2015,10,16,10,47,13.30
2015,10,16,10,48,13.30
2015,10,16,10,49,13.40
2015,10,16,10,50,13.40
2015,10,16,10,51,13.40
2015,10,16,10,52,13.40
2015,10,16,10,53,13.40
2015,10,16,10,54,13.40
2015,10,16,10,55,13.40
2015,10,16,10,56,13.40
2015,10,16,10,57,13.40
2015,10,16,10,58,13.40
2015,10,16,10,59,13.40
2015,10,16,11,00,13.40
2015,10,16,11,01,13.40
2015,10,16,11,02,13.40
2015,10,16,11,03,13.40
2015,10,16,11,04,13.40
2015,10,16,11,05,13.30
2015,10,16,11,06,13.30
2015,10,16,11,07,13.40
2015,10,16,11,08,13.40
2015,10,16,11,09,13.50
2015,10,16,11,10,13.50
2015,10,16,11,11,13.60
2015,10,16,11,12,13.70
2015,10,16,11,13,13.70
2015,10,16,11,14,13.70
2015,10,16,11,15,13.80
2015,10,16,11,16,13.80
2015,10,16,11,17,13.90
2015,10,16,11,18,13.90
2015,10,16,11,19,14.00
2015,10,16,11,20,14.00
2015,10,16,11,21,14.10
2015,10,16,11,22,14.20
2015,10,16,11,23,14.20
2015,10,16,11,24,14.20
2015,10,16,11,25,14.30
2015,10,16,11,26,14.40
2015,10,16,11,27,14.40
2015,10,16,11,28,14.50
2015,10,16,11,29,14.50
2015,10,16,11,30,14.60
2015,10,16,11,31,14.60
2015,10,16,11,32,14.70
2015,10,16,11,33,14.80
2015,10,16,11,34,14.90
2015,10,16,11,35,15.00
2015,10,16,11,36,15.10
2015,10,16,11,37,15.10
2015,10,16,11,38,15.20
2015,10,16,11,39,15.30
2015,10,16,11,40,15.40
2015,10,16,11,41,15.40
2015,10,16,11,42,15.50
2015,10,16,11,43,15.60
2015,10,16,11,44,15.60
2015,10,16,11,45,15.70
2015,10,16,11,46,15.70
2015,10,16,11,47,15.80
2015,10,16,11,48,15.80
2015,10,16,11,49,15.80
2015,10,16,11,50,15.80
2015,10,16,11,51,15.80
2015,10,16,11,52,15.90
2015,10,16,11,53,15.90
2015,10,16,11,54,15.90
2015,10,16,11,55,15.90
2015,10,16,11,56,15.90
2015,10,16,11,57,15.90
2015,10,16,11,58,15.90
2015,10,16,11,59,15.90
2015,10,16,12,00,15.90
2015,10,16,12,01,15.90
2015,10,16,12,02,15.90
2015,10,16,12,03,15.90
2015,10,16,12,04,16.00
2015,10,16,12,05,16.00
2015,10,16,12,06,16.10
2015,10,16,12,07,16.10
2015,10,16,12,08,16.10
2015,10,16,12,09,16.10
2015,10,16,12,10,16.10
2015,10,16,12,11,16.10
2015,10,16,12,12,16.10
2015,10,16,12,13,16.10
2015,10,16,12,14,16.10
2015,10,16,12,15,16.10
2015,10,16,12,16,16.10
2015,10,16,12,17,16.10
2015,10,16,12,18,16.10
2015,10,16,12,19,16.20
2015,10,16,12,20,16.20
2015,10,16,12,21,16.20
2015,10,16,12,22,16.20
2015,10,16,12,23,16.20
2015,10,16,12,24,16.20
2015,10,16,12,25,16.30
2015,10,16,12,26,16.30
2015,10,16,12,27,16.40
2015,10,16,12,28,16.40
2015,10,16,12,29,16.50
2015,10,16,12,30,16.60
2015,10,16,12,31,16.60
2015,10,16,12,32,16.70
2015,10,16,12,33,16.80
2015,10,16,12,34,16.90
2015,10,16,12,35,17.00
2015,10,16,12,36,17.00
2015,10,16,12,37,17.10
2015,10,16,12,38,17.20
2015,10,16,12,39,17.20
2015,10,16,12,40,17.20
2015,10,16,12,41,17.30
2015,10,16,12,42,17.30
2015,10,16,12,43,17.30
2015,10,16,12,44,17.30
2015,10,16,12,45,17.40
2015,10,16,12,46,17.50
2015,10,16,12,47,17.60
2015,10,16,12,48,17.60
2015,10,16,12,49,17.60
2015,10,16,12,50,17.60
2015,10,16,12,51,17.60
2015,10,16,12,52,17.70
2015,10,16,12,53,17.70
2015,10,16,12,54,17.80
2015,10,16,12,55,17.90
2015,10,16,12,56,18.00
2015,10,16,12,57,18.00
2015,10,16,12,58,18.10
2015,10,16,12,59,18.10
2015,10,16,13,00,18.30
2015,10,16,13,01,18.50
2015,10,16,13,02,18.70
2015,10,16,13,03,18.90
2015,10,16,13,04,19.00
2015,10,16,13,05,19.20
2015,10,16,13,06,19.30
2015,10,16,13,07,19.30
2015,10,16,13,08,19.30
2015,10,16,13,09,19.30
2015,10,16,13,10,19.20
2015,10,16,13,11,19.00
2015,10,16,13,12,18.80
2015,10,16,13,13,18.70
2015,10,16,13,14,18.60
2015,10,16,13,15,18.50
2015,10,16,13,16,18.50
2015,10,16,13,17,18.50
2015,10,16,13,18,18.50
2015,10,16,13,19,18.50
2015,10,16,13,20,18.50
2015,10,16,13,21,18.50
2015,10,16,13,22,18.60
2015,10,16,13,23,18.60
2015,10,16,13,24,18.60
2015,10,16,13,25,18.60
2015,10,16,13,26,18.70
2015,10,16,13,27,18.70
2015,10,16,13,28,18.80
2015,10,16,13,29,18.80
2015,10,16,13,30,18.90
2015,10,16,13,31,19.00
2015,10,16,13,32,19.00
2015,10,16,13,33,19.10
2015,10,16,13,34,19.10
2015,10,16,13,35,19.10
2015,10,16,13,36,19.10
2015,10,16,13,37,19.10
2015,10,16,13,38,19.10
2015,10,16,13,39,19.10
2015,10,16,13,40,19.20
2015,10,16,13,41,19.30
2015,10,16,13,42,19.40
2015,10,16,13,43,19.40
2015,10,16,13,44,19.40
2015,10,16,13,45,19.40
2015,10,16,13,46,19.40
2015,10,16,13,47,19.40
2015,10,16,13,48,19.40
2015,10,16,13,49,19.40
2015,10,16,13,50,19.50
2015,10,16,13,51,19.50
2015,10,16,13,52,19.50
2015,10,16,13,53,19.50
2015,10,16,13,54,19.50
2015,10,16,13,55,19.50
2015,10,16,13,56,19.50
2015,10,16,13,57,19.50
2015,10,16,13,58,19.50
2015,10,16,13,59,19.50
2015,10,16,14,00,19.50
2015,10,16,14,01,19.60
2015,10,16,14,02,19.60
2015,10,16,14,03,19.70
2015,10,16,14,04,19.80
2015,10,16,14,05,19.80
2015,10,16,14,06,19.90
2015,10,16,14,07,20.00
2015,10,16,14,08,20.10
2015,10,16,14,09,20.20
2015,10,16,14,10,20.20
2015,10,16,14,11,20.20
2015,10,16,14,12,20.20
2015,10,16,14,13,20.30
2015,10,16,14,14,20.30
2015,10,16,14,15,20.30
2015,10,16,14,16,20.30
2015,10,16,14,17,20.30
2015,10,16,14,18,20.30
2015,10,16,14,19,20.30
2015,10,16,14,20,20.30
2015,10,16,14,21,20.40
2015,10,16,14,22,20.40
2015,10,16,14,23,20.40
2015,10,16,14,24,20.40
2015,10,16,14,25,20.50
2015,10,16,14,26,20.50
2015,10,16,14,27,20.50
2015,10,16,14,28,20.50
2015,10,16,14,29,20.50
2015,10,16,14,30,20.50
2015,10,16,14,31,20.50
2015,10,16,14,32,20.60
2015,10,16,14,33,20.60
2015,10,16,14,34,20.60
2015,10,16,14,35,20.60
2015,10,16,14,36,20.60
2015,10,16,14,37,20.60
2015,10,16,14,38,20.60
2015,10,16,14,39,20.60
2015,10,16,14,40,20.70
2015,10,16,14,41,20.70
2015,10,16,14,42,20.70
2015,10,16,14,43,20.70
2015,10,16,14,44,20.70
2015,10,16,14,45,20.70
2015,10,16,14,46,20.70
2015,10,16,14,47,20.80
2015,10,16,14,48,20.80
2015,10,16,14,49,20.80
2015,10,16,14,50,20.90
2015,10,16,14,51,20.90
2015,10,16,14,52,20.90
2015,10,16,14,53,21.00
2015,10,16,14,54,20.90
2015,10,16,14,55,20.80
2015,10,16,14,56,20.70
2015,10,16,14,57,20.60
2015,10,16,14,58,20.50
2015,10,16,14,59,20.50
2015,10,16,15,00,20.40
2015,10,16,15,01,20.50
2015,10,16,15,02,20.50
2015,10,16,15,03,20.60
2015,10,16,15,04,20.70
2015,10,16,15,05,20.70
2015,10,16,15,06,20.70
2015,10,16,15,07,20.60
2015,10,16,15,08,20.60
2015,10,16,15,09,20.50
2015,10,16,15,10,20.50
2015,10,16,15,11,20.50
2015,10,16,15,12,20.60
2015,10,16,15,13,20.60
2015,10,16,15,14,20.70
2015,10,16,15,15,20.80
2015,10,16,15,16,20.80
2015,10,16,15,17,20.80
2015,10,16,15,18,20.80
2015,10,16,15,19,20.80
2015,10,16,15,20,20.80
2015,10,16,15,21,20.90
2015,10,16,15,22,20.90
2015,10,16,15,23,20.90
2015,10,16,15,24,21.00
2015,10,16,15,25,21.10
2015,10,16,15,26,21.20
2015,10,16,15,27,21.30
2015,10,16,15,28,21.40
2015,10,16,15,29,21.50
2015,10,16,15,30,21.60
2015,10,16,15,31,21.70
2015,10,16,15,32,21.80
2015,10,16,15,33,21.80
2015,10,16,15,34,21.80
2015,10,16,15,35,21.80
2015,10,16,15,36,21.80
2015,10,16,15,37,21.80
2015,10,16,15,38,21.80
2015,10,16,15,39,21.70
2015,10,16,15,40,21.70
2015,10,16,15,41,21.70
2015,10,16,15,42,21.70
2015,10,16,15,43,21.70
2015,10,16,15,44,21.70
2015,10,16,15,45,21.80
2015,10,16,15,46,21.90
2015,10,16,15,47,21.90
2015,10,16,15,48,21.90
2015,10,16,15,49,21.90
2015,10,16,15,50,21.90
2015,10,16,15,51,21.80
2015,10,16,15,52,21.70
2015,10,16,15,53,21.60
2015,10,16,15,54,21.40
2015,10,16,15,55,21.20
2015,10,16,15,56,21.10
2015,10,16,15,57,21.00
2015,10,16,15,58,20.90
2015,10,16,15,59,20.90
2015,10,16,16,00,20.80
2015,10,16,16,01,20.80
2015,10,16,16,02,20.70
2015,10,16,16,03,20.60
2015,10,16,16,04,20.50
2015,10,16,16,05,20.50
2015,10,16,16,06,20.40
2015,10,16,16,07,20.40
2015,10,16,16,08,20.40
2015,10,16,16,09,20.40
2015,10,16,16,10,20.40
2015,10,16,16,11,20.40
2015,10,16,16,12,20.50
2015,10,16,16,13,20.50
2015,10,16,16,14,20.60
2015,10,16,16,15,20.60
2015,10,16,16,16,20.70
2015,10,16,16,17,20.70
2015,10,16,16,18,20.70
2015,10,16,16,19,20.70
2015,10,16,16,20,20.70
2015,10,16,16,21,20.70
2015,10,16,16,22,20.80
2015,10,16,16,23,20.80
2015,10,16,16,24,20.90
2015,10,16,16,25,20.90
2015,10,16,16,26,20.90
2015,10,16,16,27,20.90
2015,10,16,16,28,20.90
2015,10,16,16,29,20.90
2015,10,16,16,30,20.90
2015,10,16,16,31,20.90
2015,10,16,16,32,20.80
2015,10,16,16,33,20.80
2015,10,16,16,34,20.80
2015,10,16,16,35,20.80
2015,10,16,16,36,20.80
2015,10,16,16,37,20.80
2015,10,16,16,38,20.90
2015,10,16,16,39,20.80
2015,10,16,16,40,20.80
2015,10,16,16,41,20.80
2015,10,16,16,42,20.80
2015,10,16,16,43,20.80
2015,10,16,16,44,20.80
2015,10,16,16,45,20.80
2015,10,16,16,46,20.80
2015,10,16,16,47,20.80
2015,10,16,16,48,20.80
2015,10,16,16,49,20.80
2015,10,16,16,50,20.80
2015,10,16,16,51,20.80
2015,10,16,16,52,20.70
2015,10,16,16,53,20.70
2015,10,16,16,54,20.70
2015,10,16,16,55,20.70
2015,10,16,16,56,20.60
2015,10,16,16,57,20.60
2015,10,16,16,58,20.50
2015,10,16,16,59,20.50
2015,10,16,17,00,20.50
2015,10,16,17,01,20.50
2015,10,16,17,02,20.50
2015,10,16,17,03,20.50
2015,10,16,17,04,20.40
2015,10,16,17,05,20.40
2015,10,16,17,06,20.40
2015,10,16,17,07,20.40
2015,10,16,17,08,20.40
2015,10,16,17,09,20.40
2015,10,16,17,10,20.40
2015,10,16,17,11,20.40
2015,10,16,17,12,20.40
2015,10,16,17,13,20.40
2015,10,16,17,14,20.40
2015,10,16,17,15,20.40
2015,10,16,17,16,20.40
2015,10,16,17,17,20.30
2015,10,16,17,18,20.30
2015,10,16,17,19,20.30
2015,10,16,17,20,20.30
2015,10,16,17,21,20.20
2015,10,16,17,22,20.20
2015,10,16,17,23,20.10
2015,10,16,17,24,20.10
2015,10,16,17,25,20.10
2015,10,16,17,26,20.00
2015,10,16,17,27,19.90
2015,10,16,17,28,19.90
2015,10,16,17,29,19.80
2015,10,16,17,30,19.80
2015,10,16,17,31,19.80
2015,10,16,17,32,19.80
2015,10,16,17,33,19.70
2015,10,16,17,34,19.70
2015,10,16,17,35,19.70
2015,10,16,17,36,19.60